Regional Weather Roundup
Issued by NWS

Home | Current Version | Previous Version | Text Only | Print | Product List | Glossary On
Versions: 1 2 3 4 5 6 7 8 9 10 11 12 13 14 15 16 17 18 19 20 21 22 23 24 25 26 27 28 29 30 31 32 33 34 35 36 37 38 39 40 41 42 43 44 45 46 47 48 49 50
000
ASUS45 KPSR 281510
RWRAZ

ARIZONA HOURLY REGIONAL WEATHER ROUNDUP
NATIONAL WEATHER SERVICE PHOENIX AZ
800 AM MST TUE JUL 28 2015

NOTE: FAIR INDICATES FEW OR NO CLOUDS BELOW 12,000 FEET WITH NO
SIGNIFICANT WEATHER AND/OR OBSTRUCTIONS TO VISIBILITY.

AZZ001>003-036-281600-
NORTHWEST ARIZONA

CITY           SKY/WX    TMP DP  RH WIND       PRES   REMARKS
BULLHEAD CITY  SUNNY     82  32  16 CALM      29.86R
KINGMAN        SUNNY     82  33  17 CALM      30.04R
$$

AZZ004>008-015-016-018-281600-
NORTH CENTRAL ARIZONA

CITY           SKY/WX    TMP DP  RH WIND       PRES   REMARKS
GRAND CANYON   SUNNY     70  29  21 CALM      30.28R
WILLIAMS       SUNNY     72  30  21 CALM      30.34S
PRESCOTT       SUNNY     72  39  30 CALM      30.17R
FLAGSTAFF      MOSUNNY   67  39  35 CALM      30.31R
PAYSON         CLOUDY    75  50  41 CALM      30.19R
PAGE           SUNNY     76  37  24 NW8       30.12R
$$

AZZ009>014-017-281600-
NORTHEAST ARIZONA

CITY           SKY/WX    TMP DP  RH WIND       PRES   REMARKS
WINSLOW        PTSUNNY   75  49  39 W5        30.17R
SAINT JOHNS    MOSUNNY   74  49  41 S7        30.22R
WINDOW ROCK    PTSUNNY   73  40  30 CALM      30.29R
SHOW LOW       CLOUDY    68  46  45 CALM      30.28S
$$

AZZ023-281600-
GREATER PHOENIX AREA

CITY           SKY/WX    TMP DP  RH WIND       PRES   REMARKS
PHOENIX        PTSUNNY   92  58  31 N6        29.88R
GLENDALE       PTSUNNY   90  57  33 S8        29.90R
LUKE AFB       PTSUNNY   91  57  31 S10       29.88R
DEER VALLEY    PTSUNNY   88  56  33 W3        29.91R
SCOTTSDALE     PTSUNNY   89  56  32 VRB3      29.93R
MESA-FALCON    PTSUNNY   88  57  35 VRB6      29.89R
CHANDLER       PTSUNNY   88  63  42 SE5       29.90
$$

AZZ027-028-281600-
SOUTHWEST MARICOPA COUNTY AND PINAL COUNTY

CITY           SKY/WX    TMP DP  RH WIND       PRES   REMARKS
CASA GRANDE    PTSUNNY   90  64  43 S9        29.91R
GILA BEND      MOSUNNY   89  58  35 E5        29.87R
$$

AZZ503-504-507>509-281600-
SOUTHEAST ARIZONA

CITY           SKY/WX    TMP DP  RH WIND       PRES   REMARKS
TUCSON         MOSUNNY   86  63  45 S7        30.02R
DAVIS-MONTHAN  MOSUNNY   85  64  49 S5        30.00S
RYAN FIELD     SUNNY     84  63  48 CALM      30.01R
NOGALES        SUNNY     76  63  64 CALM      30.10S
SIERRA VISTA   SUNNY     77  59  53 NE2       30.16R
DOUGLAS          N/A    N/A N/A N/A MISG      30.11S
SAFFORD        PTSUNNY   82  55  39 CALM      30.02R
$$

AZZ020-021-025-026-031-281600-
SOUTHWEST ARIZONA

CITY           SKY/WX    TMP DP  RH WIND       PRES   REMARKS
YUMA           MOSUNNY   88  66  48 E5        29.82R
$$

CAZ031-033-041-043-047-048-061-281600-
SOUTHERN CALIFORNIA

CITY           SKY/WX    TMP DP  RH WIND       PRES   REMARKS
DOWNTOWN L.A.  CLOUDY    70  62  76 CALM      29.90R
L.A. AIRPORT   PTSUNNY   69  61  75 E3        29.91R
SAN DIEGO      CLOUDY    70  60  70 CALM      29.93R
BURBANK        CLOUDY    67  61  81 CALM      29.92R
ONTARIO        SUNNY     69  60  73 CALM      29.92R
RIVERSIDE      SUNNY     68  60  75 VRB3      29.92R
PALM SPRINGS   SUNNY     83  54  36 CALM      29.84R
EL CENTRO NAS  MOSUNNY   82  54  37 CALM      29.82R
IMPERIAL       SUNNY     83  65  54 CALM      29.80R
BLYTHE         SUNNY     86  59  39 S5        29.83R
NEEDLES        SUNNY     89  27  10 CALM      29.86R
$$

NVZ020-UTZ003-281600-
SOUTHERN NEVADA-UTAH

CITY           SKY/WX    TMP DP  RH WIND       PRES   REMARKS
LAS VEGAS      SUNNY     85  26  11 W5        29.92R
SALT LAKE CITY SUNNY     62  35  36 CALM      30.27R
$$

NMZ009-TXZ055-281600-
NEW MEXICO-WEST TEXAS

CITY           SKY/WX    TMP DP  RH WIND       PRES   REMARKS
ALBUQUERQUE    MOSUNNY   76  52  43 S8        30.17R
EL PASO        PTSUNNY   83  56  39 W8        30.06S
$$


........................KEY........................
SKY/WX - SKY CONDITION/WEATHER
TMP    - TEMPERATURE IN FAHRENHEIT
DP     - DEW POINT IN FAHRENHEIT
RH     - RELATIVE HUMIDITY IN PERCENT
WIND   - DIRECTION AND SPEED IN MILES PER HOUR (MPH)
VRB    - VARIABLE WIND DIRECTION
PRES   - MEAN SEA LEVEL PRESSURE IN INCHES OF MERCURY
         F - FALLING PRESSURE   R - RISING PRESSURE
         S - STEADY PRESSURE
VSB    - VISIBILITY IN MILES
HX     - HEAT INDEX IN FAHRENHEIT
WCI    - WIND CHILL INDEX IN FAHRENHEIT
TC     - TEMPERATURE IN CELSIUS WHICH IS ALSO KNOWN AS
         TEMPERATURE IN CENTIGRADE
AFB    - AIR FORCE BASE
         LUKE AFB IS LUKE AIR FORCE BASE
         DAVIS-MONTHAN IS DAVIS-MONTHAN AIR FORCE BASE
NAS    - NAVAL AIR STATION
         EL CENTRO NAS IS EL CENTRO NAVAL AIR STATION
N/A    - NOT AVAILABLE



USA.gov is the U.S. government's official web portal to all federal, state and local government web resources and services.